Simultaneous Nadir Overpasses (SNOs) Predictions

Prediction of SNOs over PacNW region [( 10.00, 139.50) to ( 22.70, 165.60)] between AQUA and NPP Satellites:

Table of predicted SNOs over PacNW region for the next 30.0 days since TLE Epoch: 7/13/2018
Index Date (AQUA) Time (AQUA) AQUA Lat,Lon Date (NPP) Time (NPP) NPP Lat,Lon Distance(km) Time Diff (sec)
1 07/14/2018 15:10:18 22.61, 159.83 07/14/2018 15:10:50 23.18, 157.35 261.19 32
2 07/22/2018 16:00:01 22.59, 147.39 07/22/2018 16:01:32 23.20, 144.69 284.61 91
3 07/30/2018 15:10:52 22.46, 159.64 07/30/2018 15:10:49 22.93, 157.33 243.52 3
4 08/07/2018 16:00:31 22.62, 147.25 08/07/2018 16:01:27 23.16, 144.72 266.61 56




NCC Satellite Simultaneous Nadir Overpasses (SNOs) Prediction Service
